Location: Moy Burn
(57.3833°N, 4.0667°W)
Time: 10:11:19
(UTC+00:00)

Cosmos 44 Rocket - Pass Details

Date: 08 August 2020
Orbit: 647 x 743 km, 65.1° (Epoch: 18 September)

Event Time Altitude Azimuth Distance (km) Brightness Sun altitude
Rises 22:45:18 0° 305° (NW) 3,055 7.7 -14.1°
Reaches altitude 10° 22:47:39 10° 310° (NW) 2,153 6.9 -14.3°
Maximum altitude 22:52:30 57° 29° (NNE) 834 3.9 -14.5°
Drops below altitude 10° 22:57:27 10° 109° (ESE) 2,207 5.5 -14.8°
Enters shadow 22:57:31 10° 109° (ESE) 2,228 5.5 -14.8°
